#timestamp,LO_Frequency,Hit,StdDev 
1569254415.0,286047001.8,P
1569254415.9,286047001.8,P
1569254435.8,286046999.8,N
1569254455.6,286047000.3,N
1569254475.4,286047000.7,N
1569254495.3,286047000.0,N
1569254515.1,286047000.0,N
1569254535.8,286047000.0,N
1569254555.7,286047000.2,N
1569254575.5,286047000.3,N
1569254595.4,286047000.6,N
1569254615.2,286046999.9,N
1569254635.0,286047000.5,N
1569254635.9,286047000.5,N
1569254655.8,286047000.9,N
1569254675.6,286047000.1,N
1569254695.5,286047000.2,N
1569254715.3,286046999.8,N
1569254735.1,286047000.3,N
1569254755.9,286047000.0,N
1569254775.7,286047002.4,Y
1569254795.6,286047002.4,P
1569254815.4,286046998.7,N
1569254835.2,286046999.5,N
1569254855.1,286046999.6,N
1569254856.0,286046999.6,N
1569254875.8,286046996.5,Y
1569254895.6,286046996.5,P
1569254915.5,286046996.6,N
1569254935.3,286046996.9,N
1569254955.2,286046997.1,N
1569254975.0,286046997.0,N
1569254975.9,286046997.0,N
1569254995.7,286046997.0,N
1569255015.6,286046995.5,Y
1569255035.4,286046999.1,P
1569255055.3,286046999.6,N
1569255075.1,286047001.2,N
1569255095.8,286047000.0,N
1569255115.7,286047000.4,N
1569255135.5,286047002.3,N
1569255155.4,286047003.1,N
1569255175.2,286047002.5,N
1569255195.0,286047002.7,N
1569255195.9,286047002.7,N
1569255215.8,286047002.5,N
1569255235.6,286047003.8,N
1569255255.5,286047005.1,N
1569255275.3,286047004.6,N
1569255295.1,286047006.4,Y
1569255315.9,286047004.8,P
1569255335.7,286047003.4,N
1569255355.5,286047003.3,N
1569255375.4,286047005.1,Y
1569255395.2,286047001.7,P
1569255415.1,286046999.7,N
1569255416.0,286046999.7,N
1569255435.8,286047000.4,N
1569255455.6,286047002.0,N
1569255475.5,286047001.8,N
1569255495.3,286047002.5,N
1569255515.2,286047002.7,N
1569255535.0,286047000.2,N
1569255535.9,286047000.2,N
1569255555.8,286047000.5,N
1569255575.6,286047000.1,N
1569255595.4,286047001.9,N
1569255615.3,286047001.7,N
1569255635.1,286047001.9,N
1569255655.8,286046999.8,N
1569255675.7,286047002.4,N
1569255695.5,286047000.4,N
1569255715.4,286046999.7,N
1569255735.2,286047000.2,N
1569255755.0,286046999.8,N
1569255755.9,286046999.8,N
1569255775.8,286047000.2,N
1569255795.6,286047002.8,N
1569255815.5,286047000.8,N
1569255835.3,286046998.6,N
1569255855.1,286047001.1,N
1569255875.9,286047000.6,N
1569255895.7,286046999.9,N
1569255915.5,286047001.2,N
1569255935.4,286046998.1,N
1569255955.2,286047001.1,N
1569255975.1,286046998.2,N
1569255976.0,286046998.2,N
1569255995.8,286047000.1,N
1569256015.6,286047002.8,N
1569256035.5,286046998.4,N
1569256055.3,286046998.4,N
1569256075.2,286046998.8,N
1569256095.9,286046998.2,N
1569256115.7,286046998.3,N
1569256135.6,286047000.8,N
1569256155.4,286047001.0,N
1569256175.3,286047001.0,N
1569256195.1,286047000.0,N
1569256196.0,286047000.0,N
1569256215.8,286046998.2,N
1569256235.7,286046999.0,N
1569256255.5,286046997.2,N
1569256275.4,286046997.2,N
1569256295.2,286046997.3,N
1569256315.0,286046996.7,N
1569256315.9,286046996.7,N
1569256335.8,286046997.7,N
1569256355.6,286046997.6,N
1569256375.5,286046994.9,Y
1569256395.3,286046997.1,P
1569256415.1,286046996.6,P
1569256435.9,286046999.6,N
1569256455.7,286046997.0,N
1569256475.5,286046997.4,N
1569256495.4,286046997.8,N
1569256515.2,286046995.0,Y
1569256535.1,286046998.5,P
1569256536.0,286046998.5,P
1569256555.8,286046998.2,P
1569256575.7,286047001.0,Y
1569256595.5,286047000.0,P
1569256615.3,286047000.2,N
1569256635.2,286047001.0,N
1569256655.0,286046998.2,N
1569256655.9,286046998.2,N
1569256675.8,286047000.3,N
1569256695.6,286047000.9,N
1569256715.4,286047001.2,N
1569256735.3,286047000.4,N
1569256755.1,286047000.5,N
1569256775.9,286047000.1,N
1569256795.7,286047002.8,N
1569256815.5,286047004.3,Y
1569256835.4,286047001.5,P
1569256855.2,286047001.3,N
1569256875.0,286047001.7,N
1569256875.9,286047001.7,N
1569256895.8,286047001.4,N
1569256915.6,286046999.8,N
1569256935.5,286047001.5,N
1569256955.3,286047002.6,Y
1569256975.1,286046999.8,P
1569256995.9,286047002.2,P
1569257015.7,286046998.2,N
1569257035.6,286046998.4,N
1569257055.4,286046998.9,N
1569257075.2,286046996.7,N
1569257095.1,286046997.2,N
1569257096.0,286046997.2,N
1569257115.8,286046996.7,N
1569257135.7,286046997.2,N
1569257155.5,286046997.1,N
1569257175.3,286046997.7,N
1569257195.2,286046997.8,N
1569257215.0,286046996.9,N
1569257215.9,286046996.9,N
1569257235.7,286046999.1,N
1569257255.6,286046999.4,N
1569257275.4,286046996.9,N
1569257295.3,286046998.3,N
1569257315.1,286046999.1,N
1569257335.8,286046998.4,N
1569257355.7,286046998.1,N
1569257375.5,286047000.3,N
1569257395.4,286047001.1,N
1569257415.2,286047001.0,N
1569257435.0,286047000.4,N
1569257435.9,286047000.4,N
1569257455.8,286047001.2,N
1569257475.6,286046998.6,N
1569257495.5,286046998.2,N
1569257515.3,286046998.8,N
1569257535.1,286046998.5,N
1569257555.9,286047000.8,N
1569257575.7,286047001.0,N
1569257595.5,286047000.7,N
1569257615.4,286046999.7,N
1569257635.2,286046999.8,N
1569257655.1,286047000.1,N
1569257656.0,286047000.1,N
1569257675.8,286047000.7,N
1569257695.6,286047011.9,Y
1569257715.5,286047001.2,P
1569257735.3,286047000.0,N
1569257755.2,286047002.3,N
1569257775.9,286047001.1,N
1569257795.7,286047002.2,N
1569257815.6,286047004.4,Y
1569257835.4,286047001.4,P
1569257855.3,286047003.4,P
1569257875.1,286047002.1,N
1569257876.0,286047002.1,N
1569257895.8,286047001.8,N
1569257915.7,286047003.8,Y
1569257935.5,286047002.0,P
1569257955.4,286047002.3,P
1569257975.2,286047002.6,P
1569257995.0,286047000.4,N
1569257995.9,286047000.4,N
